This is the latest recevied weather packets stored in our database for station/object IU1OPQ-3. If no packets are shown the sender has not sent any weather packets the latest 10 day(s).
| Time | Temp. | Humidity | Pressure | Rain* | Wind** | Luminosity | Snow |
|---|---|---|---|---|---|---|---|
| 1788537602 | 27.78° C | 56% | 1018.2 hPa | 0 mm | - | - | - |
| 1788536400 | 28.33° C | 54% | 1018.3 hPa | 0 mm | - | - | - |
| 1788535221 | 29.44° C | 50% | 1018.4 hPa | 0 mm | - | - | - |
| 1788534001 | 29.44° C | 48% | 1018.5 hPa | 0 mm | - | - | - |
| 1788532801 | 30° C | 46% | 1018.4 hPa | 0 mm | - | - | - |
| 1788531601 | 30° C | 44% | 1018.5 hPa | 0 mm | - | - | - |
| 1788530402 | 30.56° C | 43% | 1018.5 hPa | 0 mm | - | - | - |
| 1788529200 | 30.56° C | 42% | 1018.9 hPa | 0 mm | - | - | - |
| 1788528000 | 31.11° C | 42% | 1018.8 hPa | 0 mm | - | - | - |
| 1788526802 | 31.11° C | 42% | 1018.9 hPa | 0 mm | - | - | - |
| 1788525600 | 31.67° C | 41% | 1019.2 hPa | 0 mm | - | - | - |
| 1788524400 | 31.11° C | 40% | 1019.6 hPa | 0 mm | - | - | - |
| 1788523201 | 31.11° C | 38% | 1019.5 hPa | 0 mm | - | - | - |
| 1788522001 | 28.89° C | 46% | 1019.8 hPa | 0 mm | - | - | - |
| 1788520801 | 27.78° C | 52% | 1020 hPa | 0 mm | - | - | - |
| 1788519601 | 27.22° C | 54% | 1020.4 hPa | 0 mm | - | - | - |
| 1788518401 | 26.67° C | 55% | 1020.5 hPa | 0 mm | - | - | - |
| 1788517202 | 26.11° C | 56% | 1020.8 hPa | 0 mm | - | - | - |
| 1788516001 | 26.11° C | 56% | 1020.8 hPa | 0 mm | - | - | - |
| 1788514801 | 25.56° C | 58% | 1021 hPa | 0 mm | - | - | - |
| 1788513601 | 24.44° C | 59% | 1021.1 hPa | 0 mm | - | - | - |
| 1788512401 | 24.44° C | 60% | 1020.8 hPa | 0 mm | - | - | - |
| 1788511201 | 24.44° C | 59% | 1021 hPa | 0 mm | - | - | - |
| 1788510000 | 24.44° C | 58% | 1020.8 hPa | 0 mm | - | - | - |
| 1788508801 | 23.33° C | 60% | 1020.9 hPa | 0 mm | - | - | - |
* Rain latest hour (hover to see other rain measurements)
** Current wind speed in m/s (hover to see current wind gust speed)